Location: Saint-Br�vin-les-Pins
(47.2500°N, 2.1670°W)
Time: 23:38:41
(UTC+01:00)

ISS - Visible Passes

Search period start: 19 February 2019 00:00
Search period end: 01 March 2019 00:00
Orbit: 403 x 411 km, 51.6° (Epoch: 20 February)

Date Brightness Start Highest point End Pass type
(mag) Time Alt. Az. Time Alt. Az. Time Alt. Az.
22 Feb -0.9 07:23:32 10° S 07:25:41 16° SE 07:27:50 10° E visible
24 Feb -2.2 07:15:59 10° SSW 07:18:59 33° SE 07:21:58 10° ENE visible
25 Feb -1.5 06:25:08 10° S 06:27:37 20° SE 06:30:09 10° E visible
26 Feb -1.0 05:35:49 12° SE 05:36:21 12° SE 05:37:45 10° ESE visible
26 Feb -3.6 07:09:06 10° SW 07:12:21 69° SSE 07:15:37 10° ENE visible
27 Feb -2.8 06:19:25 25° SSW 06:20:54 42° SE 06:24:01 10° ENE visible
28 Feb -1.7 05:30:09 24° ESE 05:30:09 24° ESE 05:32:16 10° E visible
28 Feb -3.8 07:02:51 12° WSW 07:05:48 66° NNW 07:09:05 10° ENE visible
